Temperature
10 9 8 8 9 10 10 10 10 10 9 9 8 8 8 8 8 8 8 8 7 6 6 5 5 5 5 5 5 5 5 5 5 5 6 6 6 6 6 6 6 6 6 6
9 8 8 9 9 9 10 9 9 9 9 8 8 7 8 8 7 7 7 7 6 6 5 5 5 5 5 4 4 5 5 5 5 5 5 5 5 5 5 5 5 5 5 5
8 7 8 9 8 9 9 8 8 8 7 8 7 7 8 8 8 7 7 7 6 6 5 4 4 4 4 4 4 4 4 4 4 4 5 4 4 4 5 5 5 4 4 4
7 7 8 8 8 8 7 7 7 7 6 6 7 6 7 7 6 6 6 6 6 5 5 4 4 3 4 4 3 4 4 4 4 4 4 4 4 4 4 4 4 4 4 4
7 6 6 7 7 7 6 6 6 6 6 5 6 5 6 7 6 5 5 5 5 5 4 4 3 3 3 3 3 3 3 3 3 3 3 3 3 3 3 3 3 4 4 3
5 6 6 6 6 6 6 6 6 5 5 4 6 6 6 6 6 6 5 5 5 4 4 3 3 3 2 2 2 3 2 2 3 2 2 2 3 3 3 3 3 3 3 3
5 5 5 5 5 5 5 5 5 5 5 5 6 5 5 6 6 5 5 4 4 4 3 3 2 2 2 2 2 2 2 2 2 2 2 2 2 2 2 2 2 3 3 3
5 5 5 5 5 4 5 5 5 5 6 6 5 4 5 5 5 5 5 4 4 3 3 2 2 2 2 1 1 1 1 1 1 2 2 1 2 2 2 2 2 2 2 2
5 4 4 4 4 4 5 4 5 4 4 4 5 5 5 4 4 4 3 3 3 2 2 1 1 1 1 1 1 1 1 1 1 1 1 1 1 1 1 1 1 1 1 1
4 3 3 3 3 3 3 4 3 3 4 4 6 6 5 3 3 3 2 2 2 2 1 1 0 0 0 0 0 0 0 0 0 0 0 1 1 1 1 1 1 1 1 1
4 2 2 2 2 2 2 2 3 3 3 4 4 5 4 3 2 2 2 2 2 1 1 0 0 -0 -0 -0 -0 -0 -0 -0 -0 -0 -0 0 0 0 0 0 1 0 0 1
3 2 1 2 1 1 2 2 2 2 2 3 3 3 2 2 2 1 1 1 1 1 0 0 -0 -0 -0 -1 -1 -1 -1 -1 -1 -1 -1 -0 -0 -0 -0 -0 -0 -0 -0 0
2 1 1 2 1 -0 0 1 1 1 1 2 2 2 1 1 1 1 1 1 0 0 -0 -0 -0 -1 -1 -1 -1 -1 -1 -1 -1 -1 -1 -1 -1 -1 -1 -1 -1 -1 -1 -1
2 0 1 2 2 0 -1 -0 -0 -0 -0 1 1 2 1 0 -0 -0 0 0 -0 -0 -1 -1 -1 -1 -1 -2 -2 -2 -2 -2 -2 -2 -2 -2 -2 -1 -1 -1 -1 -1 -1 -1
-0 -1 -1 -1 -0 -0 -0 -1 -1 -1 -0 0 1 1 1 -0 -1 -0 -0 -0 -1 -1 -1 -2 -2 -2 -2 -2 -2 -2 -2 -2 -2 -2 -2 -2 -2 -2 -2 -2 -2 -2 -2 -2
-1 -1 -2 -2 -1 -1 -1 -1 -1 -1 -1 -1 -0 -0 -0 -0 0 -1 -1 -1 -2 -2 -2 -3 -3 -3 -3 -3 -3 -3 -3 -3 -3 -3 -3 -3 -3 -3 -3 -3 -3 -3 -3 -3
-2 -2 -2 -1 -2 -2 -2 -2 -2 -2 -2 -2 -1 -1 -2 -2 -2 -2 -2 -2 -2 -3 -3 -3 -3 -3 -3 -3 -3 -3 -3 -3 -3 -3 -3 -3 -3 -3 -3 -4 -3 -3 -3 -3
-3 -3 -2 -2 -2 -2 -0 -2 -2 -2 -3 -3 -3 -3 -3 -3 -3 -2 -3 -3 -3 -3 -4 -4 -4 -4 -4 -4 -4 -4 -4 -4 -4 -4 -4 -4 -4 -4 -4 -4 -4 -4 -4 -4
-3 -3 -2 -2 -2 -1 -1 -3 -4 -3 -4 -4 -4 -4 -4 -4 -4 -3 -3 -4 -4 -4 -4 -4 -4 -4 -4 -5 -5 -5 -5 -5 -5 -5 -5 -5 -5 -5 -5 -5 -5 -5 -5 -5
-4 -4 -3 -2 -2 -1 -1 -4 -4 -3 -4 -4 -4 -5 -5 -5 -5 -5 -4 -4 -5 -5 -5 -5 -5 -5 -5 -5 -5 -5 -6 -6 -6 -6 -6 -6 -6 -6 -6 -6 -6 -6 -6 -6
-5 -4 -4 -3 -3 -2 -3 -5 -4 -3 -3 -4 -4 -5 -5 -6 -6 -5 -5 -5 -5 -5 -5 -5 -5 -5 -6 -6 -6 -6 -6 -6 -7 -7 -7 -7 -7 -7 -6 -6 -6 -6 -6 -6
-4 -4 -4 -4 -3 -3 -6 -6 -5 -4 -4 -4 -5 -5 -5 -5 -5 -5 -5 -5 -5 -6 -6 -6 -6 -6 -6 -6 -7 -7 -7 -7 -7 -7 -7 -7 -7 -7 -7 -7 -7 -7 -7 -7
-4 -4 -4 -4 -3 -4 -5 -5 -4 -4 -5 -5 -5 -5 -6 -6 -6 -6 -6 -6 -6 -6 -6 -6 -7 -7 -7 -7 -7 -8 -8 -8 -8 -8 -8 -8 -8 -8 -8 -8 -8 -8 -8 -8
-5 -5 -5 -5 -5 -5 -5 -5 -5 -5 -5 -5 -6 -6 -6 -6 -6 -6 -7 -7 -7 -7 -7 -7 -7 -8 -8 -8 -8 -8 -9 -9 -9 -9 -9 -9 -9 -9 -9 -9 -9 -9 -9 -9
-5 -7 -6 -6 -7 -6 -5 -5 -5 -5 -6 -6 -6 -6 -7 -7 -7 -7 -7 -7 -7 -8 -8 -8 -8 -8 -8 -9 -9 -9 -9 -9 -9 -9 -9 -9 -10 -9 -9 -9 -10 -9 -9 -9
-6 -7 -7 -5 -6 -6 -6 -5 -5 -6 -6 -6 -7 -7 -7 -7 -7 -8 -8 -8 -8 -8 -8 -9 -9 -9 -9 -9 -10 -10 -10 -10 -10 -10 -10 -10 -10 -10 -10 -10 -10 -10 -10 -10
Wind_Speed
3 3 3 4 5 5 4 5 7 4 2 4 8 10 8 6 5 5 4 4 4 3 3 4 3 3 3 2 2 1 2 1 1 1 1 0 0 1 1 2 3 3 2 3
3 4 3 4 4 6 6 7 6 2 1 3 6 9 8 7 6 5 5 4 4 3 3 3 3 3 3 2 2 2 2 1 1 0 0 0 0 0 1 1 2 2 2 2
4 1 2 3 4 5 6 5 4 4 4 4 5 7 6 4 5 5 4 3 4 4 4 3 3 2 2 2 2 1 1 1 1 1 1 1 1 1 0 0 0 1 1 2
2 1 2 3 3 3 4 2 3 4 4 4 3 5 5 6 5 6 5 3 3 3 3 4 3 3 3 2 2 1 1 1 1 1 1 1 1 1 1 1 0 0 1 2
1 1 2 3 2 2 1 2 3 4 5 5 5 5 5 5 6 6 5 4 3 3 4 3 3 3 2 2 2 2 2 1 1 1 1 1 1 0 0 0 1 1 1 1
1 0 1 1 2 2 1 2 3 3 2 6 7 7 6 4 5 5 5 4 3 3 3 3 2 2 2 2 2 2 3 1 1 1 1 1 1 0 0 0 1 1 1 1
2 3 2 1 1 2 2 0 1 1 3 6 5 6 6 3 3 4 5 4 4 3 3 2 2 2 1 1 2 2 2 1 1 1 1 1 1 1 1 1 2 1 1 0
2 3 4 2 1 2 3 3 3 4 4 3 3 7 4 4 3 4 3 3 3 3 2 2 2 2 1 1 2 2 2 1 1 2 2 1 1 1 1 1 1 2 1 1
1 1 2 2 2 1 2 3 1 1 3 4 6 4 3 4 3 4 3 2 2 3 2 2 1 1 1 2 2 2 2 1 1 1 1 1 1 1 1 1 1 1 1 1
1 1 1 1 0 2 2 1 1 3 3 6 6 6 4 4 3 3 4 3 2 2 2 2 1 1 1 1 1 1 1 1 1 1 1 1 1 1 1 1 1 1 1 1
1 1 1 2 4 4 2 2 3 3 4 4 4 4 1 4 4 3 3 3 2 2 1 1 1 1 1 1 1 1 1 0 0 1 1 1 1 1 1 1 1 1 1 2
0 1 2 2 1 2 1 3 4 3 5 4 4 4 3 4 3 2 2 2 2 2 1 1 1 2 1 1 1 0 0 0 1 1 1 1 1 1 1 1 1 1 1 2
2 2 1 1 0 1 2 3 3 1 1 4 5 5 1 3 3 2 1 1 0 0 0 0 1 1 0 0 0 1 1 1 1 1 1 1 1 1 1 1 1 1 1 1
1 2 5 6 2 2 4 4 4 4 4 5 8 8 4 3 2 2 1 1 0 1 0 0 0 1 1 1 1 1 1 1 1 1 1 1 1 1 1 1 1 1 1 1
1 3 4 5 5 4 6 7 7 9 9 8 8 7 6 4 4 3 2 1 2 2 2 1 2 1 1 1 1 1 1 1 1 1 1 2 2 1 1 1 1 1 1 1
1 2 1 4 5 5 8 9 10 11 9 11 11 11 5 3 1 2 2 2 3 3 3 2 2 2 2 1 1 1 1 1 1 1 2 2 1 1 1 1 1 1 1 1
3 3 2 3 1 3 8 8 10 6 7 6 10 8 3 3 3 3 3 2 3 3 2 2 2 2 2 2 2 2 2 1 1 2 2 2 1 2 2 2 1 1 2 1
4 3 2 2 1 6 6 1 5 6 6 6 5 4 2 2 4 3 1 1 2 3 3 2 2 3 2 2 1 1 1 1 2 2 2 1 1 2 1 1 2 2 2 2
2 4 2 2 4 7 3 1 3 4 5 5 7 6 4 3 4 2 2 2 2 2 2 2 2 2 2 2 1 1 1 2 2 2 2 2 2 2 2 2 2 2 2 2
1 1 3 3 4 6 4 1 1 2 4 3 4 4 2 1 1 2 3 3 3 3 2 2 3 3 2 2 1 1 2 2 3 3 2 2 2 2 2 3 2 2 2 2
3 3 5 6 6 7 2 2 3 3 5 1 2 2 2 3 4 2 3 3 3 3 3 3 3 2 2 2 2 2 2 3 3 2 2 2 2 2 3 2 2 2 2 2
7 6 6 5 6 8 3 5 5 4 0 0 1 1 2 2 3 3 3 3 3 4 3 3 3 3 3 2 2 2 3 3 2 2 2 2 2 2 2 2 2 2 2 2
6 7 5 7 7 2 6 5 3 1 1 1 1 1 1 2 3 3 3 3 3 3 3 3 3 4 3 2 2 3 3 2 2 2 2 2 2 2 2 2 2 2 2 2
4 2 3 4 5 2 4 3 1 1 2 1 1 1 2 3 4 4 4 3 3 4 3 3 3 4 4 3 3 3 3 2 1 2 2 2 2 2 2 2 2 2 2 2
4 5 4 5 4 3 4 4 4 2 1 1 2 2 3 3 4 3 4 4 3 4 3 3 3 4 5 4 4 4 3 2 2 2 3 3 2 2 1 2 2 2 2 3
5 6 6 7 4 4 4 2 2 3 4 4 3 3 3 3 4 4 4 3 3 3 3 3 3 4 4 4 4 4 3 2 2 3 3 2 2 2 1 1 2 3 3 5
Wind_Direction
196 212 212 222 233 256 272 265 264 260 189 229 236 248 246 222 204 196 197 184 175 170 147 138 136 137 127 114 112 112 106 88 79 82 77 12 359 352 45 56 71 56 53 63
199 221 238 265 262 266 265 262 268 284 189 250 262 264 248 218 201 190 191 188 179 159 133 132 134 129 134 143 146 140 133 135 131 108 286 244 320 251 99 55 87 67 45 53
205 163 248 251 257 257 261 259 269 289 300 252 275 275 223 194 178 180 191 185 171 164 165 160 151 144 134 136 154 149 145 145 127 95 69 75 39 26 42 17 94 57 65 47
214 205 261 251 255 257 255 310 301 283 281 261 211 274 237 186 184 195 199 198 194 168 152 155 160 162 156 155 148 139 144 138 128 113 140 150 173 215 252 229 189 131 92 78
189 187 252 244 281 279 261 327 281 265 266 281 232 243 260 181 205 208 195 197 195 159 149 152 152 157 150 151 154 150 142 131 115 128 178 187 221 257 321 127 156 148 128 103
231 339 357 309 317 280 252 279 268 249 246 261 222 214 258 205 199 188 180 178 167 147 137 128 111 115 120 125 138 146 149 155 137 175 220 205 203 157 8 261 186 169 157 150
227 189 158 216 237 214 234 156 329 273 233 243 194 211 240 177 141 155 164 160 151 136 135 134 128 134 144 146 147 151 149 172 173 202 234 241 219 200 205 223 188 173 167 157
220 227 177 191 218 208 225 207 192 228 250 270 231 230 228 164 127 115 116 136 131 136 135 136 139 145 153 171 170 168 163 197 196 206 233 241 234 217 235 238 205 187 189 187
258 242 70 41 349 296 210 217 209 236 279 272 244 230 228 167 175 167 163 152 147 142 129 128 121 126 140 168 190 193 181 200 209 220 222 220 220 254 257 256 222 176 166 173
325 270 242 112 347 309 302 279 151 191 234 259 257 228 218 200 212 193 168 161 156 145 134 130 133 114 110 127 144 139 159 176 203 230 229 248 227 249 253 232 240 192 161 155
326 184 237 202 203 201 183 205 221 229 231 231 265 257 308 167 169 178 169 154 151 130 137 157 149 130 100 68 61 62 66 83 198 264 254 238 246 260 257 234 229 185 175 175
64 178 237 221 94 31 220 208 185 200 240 226 258 269 28 78 91 105 106 101 114 119 127 153 131 114 99 81 51 11 350 265 262 253 251 240 244 240 232 247 244 217 195 198
154 153 247 275 221 302 248 231 218 199 231 228 235 255 41 51 47 43 64 56 87 125 120 97 121 123 126 124 282 282 290 287 278 251 248 245 255 243 239 250 237 236 207 208
123 191 209 229 248 187 230 230 203 188 214 240 236 256 275 307 318 319 315 302 340 344 312 333 266 220 213 213 239 266 279 291 280 248 248 245 252 251 256 268 255 223 215 218
135 218 235 263 283 260 245 236 211 214 223 231 254 258 269 251 261 275 290 310 323 316 317 313 299 283 270 256 254 265 277 290 285 252 248 254 263 257 241 245 255 244 224 237
179 214 261 262 256 255 263 248 226 232 239 248 264 270 276 271 282 305 305 308 301 300 306 309 310 307 303 300 292 291 285 289 284 258 257 264 254 244 233 231 229 228 224 233
183 167 206 258 283 318 267 232 211 215 216 213 242 258 306 320 311 303 298 297 292 300 310 306 297 289 288 287 284 274 275 291 275 263 266 266 254 243 242 242 225 229 230 229
173 173 201 265 308 246 242 139 181 207 231 221 240 275 292 288 301 306 350 350 327 330 327 324 312 305 301 297 295 288 292 286 273 272 273 274 275 265 260 249 235 239 243 232
198 182 200 208 248 267 248 174 156 191 253 226 234 258 285 330 326 307 6 12 334 327 324 315 311 303 307 304 299 313 299 290 277 271 269 275 274 267 257 250 247 260 255 252
59 171 199 211 234 248 246 153 98 116 265 246 210 241 266 27 294 266 358 355 340 341 343 335 327 326 321 319 338 307 277 274 271 276 280 281 275 260 250 251 261 264 259 258
159 191 211 223 236 257 234 172 125 172 253 282 195 209 182 205 230 285 336 341 344 342 341 343 336 331 319 326 336 297 285 275 285 299 300 293 280 266 256 254 261 250 262 257
182 187 201 199 225 249 158 142 182 220 260 180 218 210 208 240 284 310 319 327 339 339 337 339 333 324 321 324 317 294 290 297 310 305 296 289 286 277 271 250 259 250 237 239
204 198 195 201 217 193 157 178 192 149 220 265 276 288 243 267 277 293 306 315 318 319 321 331 327 318 321 323 316 291 293 306 313 306 293 288 286 283 274 257 251 245 228 232
217 184 218 252 256 213 189 200 196 208 229 254 257 262 251 258 270 284 295 303 310 314 316 325 323 315 316 320 316 296 295 293 280 285 286 282 274 269 262 266 260 249 236 240
205 168 205 249 268 292 237 219 222 229 233 249 260 253 246 250 269 274 283 290 297 307 315 316 305 301 304 315 315 311 307 295 285 286 285 281 280 270 265 274 263 265 245 248
193 184 195 229 215 211 244 245 220 220 236 240 245 265 261 242 259 272 275 281 291 297 302 305 302 302 305 311 311 311 304 289 275 286 290 284 281 274 262 259 302 305 295 293
Height
1490 1494 1495 1495 1494 1493 1492 1492 1493 1492 1493 1495 1496 1495 1494 1493 1494 1495 1497 1498 1500 1501 1503 1504 1505 1505 1505 1506 1506 1507 1508 1509 1510 1510 1511 1512 1512 1513 1514 1514 1515 1516 1517 1518
1491 1494 1494 1493 1493 1493 1492 1494 1493 1493 1494 1494 1494 1493 1489 1489 1490 1492 1494 1496 1497 1499 1500 1500 1501 1502 1502 1503 1504 1504 1505 1506 1507 1508 1509 1510 1510 1511 1511 1512 1513 1513 1514 1515
1490 1494 1492 1492 1493 1493 1493 1494 1494 1497 1496 1494 1496 1492 1486 1486 1487 1490 1492 1493 1495 1496 1497 1498 1498 1499 1499 1500 1501 1501 1502 1503 1504 1505 1506 1507 1508 1508 1508 1509 1509 1510 1511 1511
1491 1492 1492 1492 1493 1494 1495 1495 1495 1497 1501 1498 1496 1499 1486 1484 1487 1487 1489 1491 1492 1493 1494 1495 1496 1496 1496 1498 1498 1498 1499 1500 1501 1502 1503 1503 1504 1504 1505 1506 1506 1507 1508 1509
1491 1492 1493 1493 1494 1495 1495 1495 1496 1498 1500 1501 1495 1500 1488 1482 1485 1485 1486 1488 1489 1490 1491 1492 1493 1493 1494 1495 1496 1496 1496 1497 1498 1499 1500 1501 1501 1502 1503 1503 1504 1504 1505 1506
1493 1493 1494 1495 1495 1495 1496 1497 1497 1498 1501 1504 1493 1496 1487 1482 1480 1481 1483 1485 1486 1488 1489 1490 1491 1491 1492 1492 1493 1493 1494 1494 1495 1496 1497 1498 1499 1499 1500 1500 1500 1501 1502 1503
1493 1494 1495 1495 1496 1496 1497 1501 1504 1502 1502 1495 1487 1491 1486 1478 1477 1478 1480 1482 1484 1486 1487 1487 1488 1488 1489 1489 1490 1490 1491 1491 1492 1494 1495 1495 1496 1496 1497 1497 1497 1498 1498 1499
1492 1495 1494 1494 1495 1497 1496 1497 1502 1503 1495 1489 1489 1489 1481 1476 1476 1477 1479 1481 1482 1483 1484 1485 1485 1486 1486 1487 1487 1488 1488 1489 1490 1491 1492 1493 1493 1494 1494 1495 1495 1495 1495 1497
1492 1494 1495 1495 1495 1496 1496 1497 1497 1502 1501 1500 1487 1479 1477 1476 1476 1476 1477 1479 1480 1481 1482 1483 1483 1483 1484 1484 1485 1485 1485 1486 1487 1488 1489 1490 1490 1491 1491 1492 1492 1493 1493 1494
1492 1500 1497 1497 1497 1497 1497 1496 1501 1502 1501 1494 1479 1475 1477 1477 1476 1476 1476 1478 1479 1480 1480 1481 1481 1482 1482 1482 1482 1483 1483 1483 1484 1485 1486 1486 1487 1488 1488 1489 1489 1490 1491 1492
1492 1500 1501 1498 1499 1498 1500 1500 1499 1498 1496 1495 1488 1482 1474 1473 1474 1476 1476 1477 1478 1478 1479 1479 1480 1480 1480 1480 1480 1480 1480 1481 1481 1482 1483 1483 1484 1484 1485 1485 1486 1487 1488 1488
1493 1497 1500 1498 1497 1497 1497 1497 1499 1502 1498 1494 1492 1487 1476 1474 1474 1475 1476 1476 1477 1477 1477 1477 1477 1477 1478 1478 1478 1478 1478 1478 1478 1479 1479 1480 1481 1481 1482 1482 1482 1483 1484 1485
1493 1498 1501 1497 1502 1502 1500 1498 1498 1500 1499 1495 1492 1486 1478 1476 1475 1476 1476 1476 1476 1476 1475 1475 1475 1475 1474 1475 1475 1475 1475 1475 1476 1476 1476 1477 1477 1478 1478 1478 1479 1480 1480 1481
1492 1496 1497 1493 1490 1496 1499 1497 1497 1499 1500 1494 1487 1480 1478 1478 1477 1476 1475 1475 1474 1474 1473 1473 1473 1472 1472 1472 1472 1472 1472 1473 1473 1473 1473 1473 1473 1474 1474 1475 1475 1476 1476 1477
1492 1496 1496 1494 1492 1492 1492 1493 1495 1496 1492 1491 1481 1479 1476 1477 1476 1475 1475 1474 1473 1473 1472 1472 1471 1471 1470 1470 1469 1469 1469 1469 1469 1469 1469 1470 1470 1470 1471 1471 1471 1472 1472 1473
1493 1495 1496 1495 1492 1491 1490 1487 1489 1489 1488 1486 1481 1478 1474 1474 1474 1474 1473 1473 1472 1472 1471 1470 1469 1469 1468 1467 1467 1467 1466 1466 1466 1466 1466 1466 1467 1467 1467 1467 1467 1467 1468 1469
1493 1496 1495 1491 1492 1491 1488 1482 1483 1483 1481 1481 1480 1476 1473 1473 1473 1472 1472 1471 1471 1470 1469 1468 1468 1467 1466 1465 1465 1464 1463 1463 1462 1462 1462 1462 1462 1463 1463 1463 1463 1463 1464 1464
1492 1494 1494 1494 1493 1493 1475 1473 1473 1475 1476 1476 1474 1473 1472 1472 1472 1471 1471 1470 1469 1469 1468 1467 1466 1465 1464 1463 1462 1461 1460 1460 1459 1458 1458 1458 1458 1458 1458 1459 1459 1460 1460 1461
1489 1491 1491 1493 1491 1479 1472 1473 1474 1476 1475 1472 1472 1471 1471 1471 1470 1469 1468 1468 1468 1467 1466 1465 1464 1463 1461 1460 1459 1458 1457 1456 1455 1455 1454 1454 1454 1454 1454 1455 1455 1456 1456 1456
1489 1490 1492 1490 1489 1481 1471 1472 1471 1474 1475 1468 1468 1468 1469 1470 1472 1469 1467 1466 1465 1465 1464 1462 1461 1460 1459 1457 1456 1455 1454 1453 1452 1451 1450 1450 1450 1450 1450 1451 1451 1452 1452 1452
1491 1492 1492 1489 1486 1475 1471 1470 1471 1476 1470 1466 1465 1466 1467 1468 1468 1467 1465 1464 1463 1462 1461 1460 1459 1457 1456 1454 1453 1451 1450 1449 1448 1447 1447 1446 1446 1446 1447 1447 1447 1448 1448 1448
1483 1485 1487 1484 1483 1475 1469 1470 1471 1468 1465 1464 1464 1464 1464 1464 1464 1463 1463 1462 1461 1459 1458 1457 1456 1454 1453 1452 1450 1448 1447 1446 1445 1444 1444 1443 1443 1443 1443 1443 1443 1444 1444 1444
1474 1472 1472 1472 1468 1463 1463 1463 1463 1463 1463 1463 1463 1462 1462 1462 1461 1461 1460 1459 1458 1457 1455 1454 1453 1451 1450 1449 1447 1445 1444 1443 1442 1441 1440 1440 1440 1439 1439 1440 1440 1440 1440 1440
1468 1467 1468 1467 1462 1461 1461 1460 1461 1461 1461 1460 1461 1460 1460 1459 1458 1458 1457 1456 1455 1453 1452 1451 1449 1448 1446 1445 1444 1442 1441 1440 1439 1438 1437 1437 1436 1436 1436 1436 1436 1436 1437 1437
1461 1465 1465 1464 1460 1459 1457 1457 1457 1458 1458 1457 1457 1457 1456 1456 1455 1454 1453 1453 1452 1450 1449 1448 1447 1445 1443 1442 1440 1439 1438 1437 1436 1435 1434 1434 1434 1433 1433 1433 1433 1433 1434 1434
1456 1459 1461 1457 1454 1455 1453 1453 1454 1454 1454 1454 1453 1453 1452 1452 1451 1451 1450 1449 1448 1447 1446 1444 1443 1441 1440 1438 1437 1436 1435 1434 1433 1432 1431 1431 1430 1430 1430 1430 1430 1430 1431 1431